Location: Bukovany
(49.8234°N, 14.6297°E)
Time: 17:40:10
(UTC+00:00)

YAOGAN 1 - Pass Details

Date: 17 November 2025
Orbit: 605 x 607 km, 97.8° (Epoch: 09 December)

Event Time Altitude Azimuth Distance (km) Brightness Sun altitude
Rises 16:29:16 0° 137° (SE) 2,857 5.7 -11.8°
Reaches altitude 10° 16:31:37 10° 126° (SE) 1,958 4.8 -12.2°
Maximum altitude 16:35:19 30° 66° (ENE) 1,105 3.3 -12.8°
Drops below altitude 10° 16:39:03 10° 5° (N) 1,969 4.9 -13.3°
Sets 16:41:25 0° 355° (N) 2,878 5.9 -13.7°
